OPS 4682 DEB, 17722

Orbit data source: Space-Track

OPS 4682 DEB, 17722 is space debris in LEO originally from a launch on Sat, 03 Apr 1965 UTC launched from the Air Force Western Test Range (AFWTR). Debris objects in space refer to the collection of defunct objects orbiting the Earth. Examples of debris include non-operational satellites, rocket bodies, and fragments generated from explosions, collisions, or faulty payload assembly.

Loading next visibility...
Identifier
17722, 1965-027W
Orbit
LEO
Country
Flag of USUS
Related business
Manufacturer
Unknown
Mission
Spacecraft
Bus & Motor
Unknown
Mass
Unknown
Launch date (UTC)
1965-04-03 (61 years ago)
Launch vehicle
Unknown
Launch site
Air Force Western Test Range (AFWTR)
Object type
Payload
Rocket body
Debris
Shape & HBR
Unknown shape, 0.1 m
Radar Cross Section
Small (<0.1 m²)

Expand to show TLE details & history
Last TLE update: 1 day ago

TLE from 1 day ago
0 OPS 4682 DEB
1 17722U 65027W   25294.63467703  .00000743  00000-0  24858-2 0  9990
2 17722  90.2385 349.2234 0006224 136.6782  16.5158 12.98872000913389
Epoch: 2025-10-21T15:13Z
TLE epoch observation values (Epoch: 2025-10-21T15:13:56.095Z)
Latitude
26.81865°
Longitude
-89.46018°
Altitude
1,265.217 km
Speed
7.227 km/s
True Right ascension
11h 17m 22s
True Declination
26° 41' 23"
Sunlit
Object was in daylight at epoch
Visualization orbit readout
Latitude
Unknown
Longitude
Unknown
Altitude
Unknown
Speed
Unknown
Apparent Right ascension
Unknown
Apparent Declination
Unknown
Sunlit
N/A
Visualization observer readout
Local Sidereal Time
12:39:10
Azimuth
Unknown
Elevation
Unknown
Doppler factor
Unknown
Orbital elements
Apogee altitude
1,268.394 km
Perigee altitude
1,258.882 km
Semi-major axis
7,641.775 km
Eccentricity
0.00062
Inclination
90.2385°
RAAN
349.2234°
Arg. of periapsis
136.6782°
True anomaly
16.53609°
Mean anomaly
16.5158°
Eccentric anomaly
16.52594°
Mean motion
3.24902 °/min
Orbital period
110.8 mins
BSTAR
0.0024858
Loading maneuver chart data...
Computing Atmospheric mass density...
Loading historical data...
Loading historical data...
Loading historical data...
Loading historical data...
Loading historical data...
Loading historical data...
Loading historical data...

Documentation

Showing up to 5 results
|